Torna al catalogo

STARLINK-32778

AttivoComunicazioniVLEO
NORAD 62603·PAYLOAD·🇺🇸 United States

Lanciato Jan 13, 2025 da Cape Canaveral Space Force Station

Loading…

Prossimi Passaggi (prossime 24 ore)

TLE

AggiornatoSource: CelesTrak SupGP

Epoca: Sep 15, 2026, 03:22 UTC

1 62603C 25008S   26258.14076389  .00004348  00000+0  15743-3 0  2582
2 62603  43.0030 288.4892 0001547 271.8577  61.0917 15.27584260    19

Traccia STARLINK-32778 in tempo reale con AllMySat

Download on the App Store